Regional Weather Roundup
Issued by NWS

Home | Current Version | Previous Version | Graphics & Text | Print | Product List | Glossary On
Versions: 1 2 3 4 5 6 7 8 9 10 11 12 13 14 15 16 17 18 19 20 21 22 23 24 25 26 27 28 29 30 31 32 33 34 35 36 37 38 39 40 41 42 43 44 45 46 47 48 49 50
000
ASUS45 KSLC 282210
RWRUT

UTAH REGIONAL WEATHER ROUNDUP
NATIONAL WEATHER SERVICE SALT LAKE CITY UT
400 PM MDT FRI AUG 28 2015

UTZ001>011-023>025-282300-

NORTHERN UTAH

CITY           SKY/WX    TMP DP  RH WIND       PRES   REMARKS
BRIGHAM CITY   SUNNY     91  28  10 S5        30.11F
HILL AFB       MOSUNNY   91  39  16 W7        30.15F
LOGAN          SUNNY     89  38  16 VRB5      30.12F
OGDEN          SUNNY     91  37  15 VRB5      30.12F
PROVO AIRPORT  NOT AVBL
SALT LAKE CITY MOSUNNY   94  33  11 N12       30.09F
VERNAL         MOSUNNY   84  37  18 S6        30.20F
WENDOVER       MOSUNNY   93  39  15 E14       30.08F
HEBER CITY     SUNNY     90  32  12 W7        30.19F
WEST JORDAN    SUNNY     91  37  15 NE8       30.13F

$$

UTZ012>022-026-027-282300-

SOUTHERN/CENTRAL UTAH

CITY           SKY/WX    TMP DP  RH WIND       PRES   REMARKS
BLANDING       MOSUNNY   88  36  16 N5G13     30.28F
BRYCE CANYON   MOSUNNY   78  39  24 S7        30.38F
CEDAR CITY     PTSUNNY   90  38  16 S8        30.19F
DELTA          SUNNY     92  30  11 NW3G17    30.13F
HANKSVILLE     SUNNY     91  32  12 N6        30.15F
MILFORD        SUNNY     92  34  13 VRB7      30.13F
MOAB/CYNLANDS  SUNNY     91  37  15 VRB6      30.12F
PRICE          SUNNY     87  33  14 S5        30.23F
ST GEORGE      CLEAR    100  45  15 S5        29.99F HX  96
KANAB          SUNNY     88  52  29 SE7G16    30.21F

$$

REGIONAL REPORTS     COLORADO/ARIZONA

CITY           SKY/WX    TMP DP  RH WIND       PRES   REMARKS
CRAIG, CO      SUNNY     81  39  22 VRB3      30.28F
GRAND JUNCTION SUNNY     86  42  21 MISG      30.16F
RIFLE          SUNNY     84  42  22 VRB3      30.22F
MONTROSE       SUNNY     83  43  24 NW14      30.25F
CORTEZ         SUNNY     87  35  15 NW10G23   30.18F
PAGE, AZ       MOSUNNY   95  43  16 MISG      30.10F HX  91
GRAND CANYON   PTSUNNY   81  45  28 MISG      30.31F
KINGMAN        PTSUNNY   94  49  21 W10       30.03F HX  90
FLAGSTAFF      PTSUNNY   77  47  34 SE7       30.33F

$$

REGIONAL REPORTS    NEVADA/IDAHO/WYOMING

CITY           SKY/WX    TMP DP  RH WIND       PRES   REMARKS
LAS VEGAS, NV  MOSUNNY  104  47  14 N8        29.87F HX 100
ELY            PTSUNNY   76  47  35 E17G24    30.24F
ELKO           MOSUNNY   89  41  18 VRB5      30.08F
POCATELLO, ID  PTSUNNY   89  39  17 SW18G38   30.12S
EVANSTON, WY   MOSUNNY   83  31  15 S9        30.32F
ROCK SPRINGS   SUNNY     80  31  16 CALM      30.29F
KEMMERER       MOSUNNY  N/A N/A N/A W9        30.33F

$$



USA.gov is the U.S. government's official web portal to all federal, state and local government web resources and services.